Location: Hoyos del Collado
(40.3594°N, 5.2003°W)
Time: 11:19:21
(UTC+00:00)

Resurs 01 Rocket - Pass Details

Date: 18 April 2024
Orbit: 631 x 640 km, 97.8° (Epoch: 22 May)

Event Time Altitude Azimuth Distance (km) Brightness Sun altitude
Exits shadow 19:39:07 - 138° (SE) 2,350 4.0 -7.3°
Reaches altitude 10° 19:40:00 10° 134° (SE) 2,018 3.6 -7.5°
Maximum altitude 19:43:57 33° 70° (ENE) 1,073 2.4 -8.2°
Drops below altitude 10° 19:47:55 10° 7° (N) 2,037 4.4 -8.8°
Sets 19:50:17 0° 358° (N) 2,951 5.4 -9.3°
